Regional Weather Roundup
Issued by NWS Cleveland, OH

Home | Current Version | Previous Version | Text Only | Print | Product List | Glossary Off
Versions: 1 2 3 4 5 6 7 8 9 10 11 12 13 14 15 16 17 18 19 20 21 22 23 24 25 26 27 28 29 30 31 32 33 34 35 36 37 38 39 40 41 42 43 44 45 46 47 48 49 50

000
ASUS41 KCLE 310110
RWRCLE
OHIO REGIONAL WEATHER ROUNDUP
NATIONAL WEATHER SERVICE CLEVELAND, OH
800 PM EST FRI JAN 30 2015

NOTE: "FAIR" INDICATES FEW OR NO CLOUDS BELOW 12,000 FEET WITH NO
SIGNIFICANT WEATHER AND/OR OBSTRUCTIONS TO VISIBILITY.

OHZ001>008-015>018-024>027-034-035-043-044-310200-
   NORTHWEST OHIO

CITY           SKY/WX    TMP DP  RH WIND       PRES   REMARKS
DEFIANCE       CLEAR     19  11  70 CALM      30.44S
FINDLAY        CLEAR     16   8  71 CALM      30.42S
TOLEDO EXPRESS CLEAR     15   7  70 CALM      30.43S
TOLEDO EXEC    CLEAR     18   8  65 CALM      30.45R
LIMA           CLEAR     19  11  70 S5        30.42S WCI  12
$$

OHZ009>014-019>023-028>033-038-089-310200-
   NORTHEAST OHIO

CITY           SKY/WX    TMP DP  RH WIND       PRES   REMARKS
CLE-HOPKINS    CLEAR     13   5  70 N3        30.46S
CLE-LAKEFRONT  CLEAR     14   6  70 NW7       30.44S WCI   4
CUY CO. ARPT   PTCLDY    14   9  79 NW12      30.42F WCI   0
LORAIN-ELYRIA  CLEAR      9   3  77 CALM      30.43F
ASHTABULA      CLOUDY    14   7  73 NW10      30.39S WCI   1
AKRON-CANTON   PTCLDY    12   2  64 NW6       30.39S WCI   3
WOOSTER        CLEAR      7   0  73 CALM      30.41S
MANSFIELD      CLEAR      9   4  80 CALM      30.40S
YOUNGSTOWN     LGT SNOW  13   7  77 NW8       30.36S WCI   2
$$

OHZ042-051>053-060>062-070>072-077>081-310200-
  SOUTHWEST OHIO

CITY           SKY/WX    TMP DP  RH WIND       PRES   REMARKS
CINC-COVINGTON PTCLDY    24  14  65 CALM      30.45R
CINC-LUNKEN    CLEAR     24  14  65 CALM      30.48S
HAMILTON       CLEAR     20  15  81 CALM      30.48R
DAYTON         CLEAR     21  11  65 CALM      30.44S
WRIGHT-PAT AFB CLEAR     18  12  76 SW2       30.44F
DAYTON GENERAL CLEAR     23  12  62 N3        30.43S
WILMINGTON     CLEAR     19  11  70 N5        30.43S WCI  12
$$

OHZ036-037-039>041-045>050-054>059-063>069-073>076-082>088-310200-
  CENTRAL AND SOUTHEAST OHIO

CITY           SKY/WX    TMP DP  RH WIND       PRES   REMARKS
COLUMBUS       CLEAR     18   7  62 CALM      30.44F
OSU AIRPORT    FAIR      17   8  67 CALM      30.44R
BOLTON FIELD   PTCLDY    17  10  75 CALM      30.44S
RICKENBACK AFB CLEAR     20   9  64 N3        30.45S
NEWARK         CLEAR     14   6  70 CALM      30.43F
MARION         CLEAR     12   5  73 CALM      30.42S
LANCASTER      CLEAR     14  10  84 CALM      30.44F
ZANESVILLE     CLEAR     14   4  64 CALM      30.42F
NEW PHILLY     PTCLDY    14   5  67 CALM      30.43F
$$



USA.gov is the U.S. government's official web portal to all federal, state and local government web resources and services.